Location: Joplin
(37.0842°N, 94.5131°W)
Time: 01:49:40
(UTC-06:00)

Envisat - Pass Details

Date: 25 October 2018
Orbit: 764 x 766 km, 98.2° (Epoch: 20 November)

Event Time Altitude Azimuth Distance (km) Brightness Sun altitude
Rises 20:07:03 0° 161° (SSE) 3,217 6.0 -20.3°
Reaches altitude 10° 20:09:21 10° 159° (SSE) 2,295 5.3 -20.8°
Maximum altitude 20:14:23 74° 76° (ENE) 798 2.8 -21.8°
Drops below altitude 10° 20:19:28 10° 351° (N) 2,309 5.6 -22.8°
Sets 20:21:47 0° 350° (N) 3,239 6.4 -23.2°
